Regional Weather Roundup
Issued by NWS Sterling, VA

Home | Current Version | Previous Version | Text Only | Print | Product List | Glossary Off
Versions: 1 2 3 4 5 6 7 8 9 10 11 12 13 14 15 16 17 18 19 20 21 22 23 24 25 26 27 28 29 30 31 32 33 34 35 36 37 38 39 40 41 42 43 44 45 46 47 48 49 50

000
ASUS41 KLWX 281810
RWRLWX

REGIONAL WEATHER ROUNDUP
NATIONAL WEATHER SERVICE BALTIMORE MD/WASHINGTON DC
200 PM EDT MON JUL 28 2014

Note: "FAIR" indicates few or no clouds below 12,000 feet
with no significant weather and/or obstructions to visibility.
 TC=TEMPERATURE CELSIUS

 * =Non NWS site. Station does not report precipitation (e.g. rain,
    snow, etc.), thunder, or fog.

DCZ001-MDZ009-015-VAZ040>042-051-053>054-281900-
WASHINGTON METRO
  /KDAA//-FT BELVOIR

CITY           SKY/WX    TMP DP  RH WIND       PRES   REMARKS
WASHINGTON NAT PTSUNNY   84  57  39 W16G26    29.68S
DULLES         PTSUNNY   80  55  42 W16G26    29.70S
ANDREWS AFB    MOSUNNY   83  58  42 W18G28    29.67S
QUANTICO       MOSUNNY   85  56  37 NW20G28   29.70S
COLLEGE PARK*  SUNNY     82  55  39 W13G22    29.66F
LEESBURG*      MOSUNNY   79  61  53 W21G28    29.71S
GAITHERSBURG*  PTSUNNY   79  59  50 NW13G21   29.71F

$$

MDZ006>007-011-014-281900-
BALTIMORE METRO

CITY           SKY/WX    TMP DP  RH WIND       PRES   REMARKS
BWI AIRPORT    MOSUNNY   84  55  36 W29G39    29.64F
MD SCIENCE CTR   N/A     85  56  37 MISG      29.64F
MARTIN STATE   MOSUNNY   82  59  44 W21G28    29.65F
ANNAPOLIS      PTSUNNY   81  60  48 NW9       29.65S
FORT MEADE*    SUNNY     82  59  44 W16G24    29.68F

$$

MDZ012-015-019>023-281900-
MARYLAND EASTERN SHORE

CITY           SKY/WX    TMP DP  RH WIND       PRES   REMARKS
OCEAN CITY     MOSUNNY   86  63  45 NW13G23   29.64S
SALISBURY      NOT AVBL
BAY BRIDGE AP*   N/A     81  57  44 W15       29.65S
CAMBRIDGE*     SUNNY     82  55  39 W9G22     29.66S
EASTON*        PTSUNNY   84  61  45 W15G23    29.69S

$$

MDZ017>025-281900-
SOUTHERN MARYLAND

CITY           SKY/WX    TMP DP  RH WIND       PRES   REMARKS
PATUXENT RIVER PTSUNNY   86  60  41 W14G22    29.67S
ST INIGOES     PTSUNNY   83  61  47 W15G22    29.68S
LEONARDTOWN*   PTSUNNY   81  59  47 NW9       29.70S

$$

MDZ003>005-281900-
NORTH CENTRAL MARYLAND

CITY           SKY/WX    TMP DP  RH WIND       PRES   REMARKS
FREDERICK*     PTSUNNY   81  63  54 MISG      29.70S
HAGERSTOWN APT MOSUNNY   77  56  48 W16       29.68R
WESTMINSTER*   PTSUNNY   79  59  50 W15G22    29.68S

$$

MDZ501>502-281900-
WESTERN MARYLAND

CITY           SKY/WX    TMP DP  RH WIND       PRES   REMARKS
OAKLAND*       CLOUDY    55 N/A N/A W12G21    29.82R FOG
CUMBERLAND*    PTSUNNY   77  54  44 W7        29.77R

$$

VAZ025>031-281900-
SHENANDOAH VALLEY

CITY           SKY/WX    TMP DP  RH WIND       PRES   REMARKS
WINCHESTER*    CLOUDY    73  57  56 W20G31    29.72F
STAUNTON*      PTSUNNY   77  52  41 W12G17    29.80S

$$

WVZ021-048>050-054>055-281900-
EASTERN WEST VIRGINIA PANHANDLE

CITY           SKY/WX    TMP DP  RH WIND       PRES   REMARKS
MARTINSBURG    PTSUNNY   76  58  53 W17       29.70F
PETERSBURG*    CLOUDY    72  50  46 W10       29.80R

$$

VAZ036>039-050-281900-
CENTRAL FOOTHILLS

CITY           SKY/WX    TMP DP  RH WIND       PRES   REMARKS
CHARLOTTESVILL PTSUNNY   80  55  42 W8        29.75R
ORANGE*        MOSUNNY   82  55  39 SW12G18   29.75R

$$

VAZ055>057-281900-
NORTH AND CENTRAL PIEDMONT

CITY           SKY/WX    TMP DP  RH WIND       PRES   REMARKS
FREDERICKSBRG* MOSUNNY   84  60  44 W13G21    29.69S
STAFFORD*      SUNNY     85  57  38 W13G23    29.74S

$$

NCZ024-NYZ072-PAZ021-071-VAZ022-071-281900-
OTHER REGIONAL OBSERVATIONS

CITY           SKY/WX    TMP DP  RH WIND       PRES   REMARKS
NEW YORK CITY  MOSUNNY   79  62  56 VRB6G20   29.55F
PHILADELPHIA   MOSUNNY   83  60  45 W21G29    29.60R
PITTSBURGH     CLOUDY    69  61  75 NW20G26   29.77R
ROANOKE        CLOUDY    77  54  44 W17G26    29.85S
RICHMOND       MOSUNNY   85  57  38 W15G31    29.72S
RALEIGH        MOSUNNY   83  61  47 W7        29.81S

$$

ANZ530>537-281900-
MARINE OBSERVATIONS

STATION/POSITION TIME  TEMP    WIND        PRES
                       AIR SEA DIR/SP/G
                 (UTC) (F)     (DEG/KT/KT) (MB)
THOMAS PT LIGHT  1800   80 79  280/ 20/ 23 1004.4F
BALT KEY BRIDGE  1800   81     260/ 22/ 28 1003.8F
COVE POINT       1800   80     320/ 11/ 15 1004.7R
LEWISETTA        1800   82 80  320/ 12/ 16 1005.0S
SOLOMONS ISLAND  1800      81                N/A
PINEY POINT      1800          320/ 16/ 19   N/A

$$




USA.gov is the U.S. government's official web portal to all federal, state and local government web resources and services.